Tucumcari, NM

1:21 AM MDT on May 23, 2017 (GMT -0600)
Tucumcari Municipal

Weather History for KTCC - November, 2013

Change the Weather History Date:

Saturday, November 9, 2013

  Actual Average Record
Temperature  
Mean Temperature 56 °F -  
Max Temperature 71 °F 65 °F 82 °F (2006)
Min Temperature 39 °F 35 °F 16 °F (2000)
Degree Days  
Heating Degree Days 9    
Growing Degree Days 6 (Base 50)    
Moisture  
Dew Point 28 °F    
Average Humidity 41    
Maximum Humidity 73    
Minimum Humidity 23    
Precipitation  
Precipitation 0.00 in - - ()
Sea Level Pressure  
Sea Level Pressure 30.03 in    
Wind  
Wind Speed 8 mph (NNE)    
Max Wind Speed 14 mph    
Max Gust Speed 20 mph    
Visibility 10 miles    
Events      
Averages and records for this station are not official NWS values.
T = Trace of Precipitation, MM = Missing Value Source: NWS Daily Summary

Daily Weather History Graph

Daily Weather History Graph

Search for Another Location

Airport or City:

Trip Planner

Search our weather history database for the weather conditions in past years. The results will help you decide how hot, cold, wet, or windy it might be!

Date:

Astronomy

Nov. 09, 2013 Rise Set
Actual Time 6:23 AM MST 4:52 PM MST
Civil Twilight 5:56 AM MST 5:19 PM MST
Nautical Twilight 5:26 AM MST 5:49 PM MST
Astronomical Twilight 4:56 AM MST 6:19 PM MST
Moon 12:04 PM MST (11/9) 11:21 PM MST (11/9)
Length of Visible Light 11h 22m
Length of Day
10h 28m
Waxing Crescent, 45% of the Moon is Illuminated
Nov 9
Waxing Crescent
Nov 9
First Quarter
Nov 17
Full
Nov 25
Last Quarter
Dec 2
New

Hourly Weather History & Observations

Time (MST) Temp. Windchill Dew Point Humidity Pressure Visibility Wind Dir Wind Speed Gust Speed Precip Events Conditions
12:53 AM 42.1 °F 37.7 °F 25.0 °F 51% 29.86 in 10.0 mi WSW 6.9 mph - N/A   Clear
1:53 AM 44.1 °F 39.5 °F 24.1 °F 45% 29.86 in 10.0 mi WSW 8.1 mph - N/A   Clear
2:53 AM 43.0 °F 40.3 °F 24.1 °F 47% 29.87 in 10.0 mi WSW 4.6 mph - N/A   Clear
3:53 AM 44.1 °F 38.1 °F 24.1 °F 45% 29.88 in 10.0 mi West 11.5 mph - N/A   Clear
4:53 AM 46.0 °F 39.9 °F 23.0 °F 40% 29.92 in 10.0 mi WNW 13.8 mph - N/A   Clear
5:53 AM 42.1 °F 39.2 °F 23.0 °F 47% 29.97 in 10.0 mi ESE 4.6 mph - N/A   Clear
6:53 AM 41.0 °F 38.0 °F 21.9 °F 47% 30.01 in 10.0 mi WNW 4.6 mph - N/A   Clear
7:53 AM 51.1 °F - 25.0 °F 36% 30.03 in 10.0 mi Calm Calm - N/A   Clear
8:53 AM 59.0 °F - 25.0 °F 27% 30.03 in 10.0 mi North 10.4 mph - N/A   Clear
9:53 AM 63.0 °F - 28.0 °F 27% 30.04 in 10.0 mi North 9.2 mph - N/A   Clear
10:53 AM 64.9 °F - 28.9 °F 26% 30.03 in 10.0 mi NNE 12.7 mph - N/A   Clear
11:53 AM 69.1 °F - 30.0 °F 23% 30.01 in 10.0 mi NNE 13.8 mph - N/A   Clear
12:53 PM 70.0 °F - 30.0 °F 23% 30.00 in 10.0 mi NNE 13.8 mph 19.6 mph N/A   Clear
1:53 PM 71.1 °F - 30.9 °F 23% 29.99 in 10.0 mi NNE 10.4 mph - N/A   Clear
2:53 PM 71.1 °F - 30.9 °F 23% 30.00 in 10.0 mi NE 13.8 mph - N/A   Clear
3:53 PM 69.1 °F - 30.9 °F 24% 30.02 in 10.0 mi ENE 10.4 mph - N/A   Clear
4:53 PM 61.0 °F - 30.9 °F 32% 30.06 in 10.0 mi East 8.1 mph - N/A   Clear
5:53 PM 53.1 °F - 28.9 °F 40% 30.12 in 10.0 mi ENE 5.8 mph - N/A   Clear
6:53 PM 48.9 °F - 30.0 °F 48% 30.16 in 10.0 mi NE 5.8 mph - N/A   Clear
7:53 PM 46.9 °F - 30.9 °F 54% 30.15 in 10.0 mi NE 9.2 mph - N/A   Clear
8:53 PM 45.0 °F 42.6 °F 30.9 °F 58% 30.15 in 10.0 mi East 4.6 mph - N/A   Clear
9:53 PM 44.1 °F 40.1 °F 30.9 °F 60% 30.15 in 10.0 mi NE 6.9 mph - N/A   Clear
10:53 PM 41.0 °F 38.0 °F 30.9 °F 67% 30.17 in 10.0 mi NNE 4.6 mph - N/A   Clear
11:53 PM 39.9 °F 34.5 °F 32.0 °F 73% 30.17 in 10.0 mi North 8.1 mph - 0.00 in   Clear